Probability
4 6 8 9 7 5 3 3 3 2 2 2 1 0 0 0 0 2 4 5 4 4 4 4 4 4 4 4 4 4 5 7 7 6 4 2 2 3 3 3 2 1 0
4 5 6 7 6 4 3 3 3 3 3 2 1 0 0 0 0 2 3 3 3 4 5 5 6 5 5 5 4 5 6 7 7 6 6 4 3 3 3 3 2 0 0
4 4 4 5 4 3 3 3 3 3 3 3 3 2 1 0 0 1 1 1 1 3 4 5 6 5 4 5 6 6 7 7 7 7 8 6 3 2 2 2 1 0 0
3 3 3 3 3 3 3 3 3 3 4 4 5 3 2 0 0 0 0 0 0 1 2 3 4 4 4 6 7 7 7 7 6 7 8 7 4 1 1 1 1 0 0
2 2 2 2 3 3 3 3 4 4 5 6 5 2 1 0 0 0 0 0 0 0 1 2 3 4 5 7 8 8 7 6 5 6 7 7 4 1 0 0 0 0 0
1 1 0 1 3 3 3 4 5 6 6 5 4 1 0 0 0 1 1 1 1 0 1 2 3 4 5 6 7 8 8 7 5 6 7 7 4 1 0 1 0 0 0
1 0 0 1 2 3 3 4 5 5 5 4 3 3 1 1 1 2 2 3 2 1 1 2 4 5 5 4 6 8 8 7 6 6 7 7 4 2 1 1 1 1 0
1 1 0 1 2 3 3 4 5 5 5 4 4 5 4 2 2 2 3 4 4 3 2 2 4 5 6 6 6 6 6 5 5 5 5 5 4 2 1 1 2 2 1
1 2 1 0 1 3 3 4 5 6 6 5 5 6 6 4 3 2 3 4 5 4 4 3 4 5 7 8 7 6 5 5 5 4 4 3 3 2 1 2 3 2 1
1 2 2 1 1 2 3 4 6 6 6 6 5 6 6 5 4 3 4 4 4 3 2 3 4 6 8 10 10 7 5 5 5 5 4 3 3 2 1 1 2 2 1
2 2 1 1 0 1 2 4 6 7 7 7 5 5 5 5 5 5 4 4 3 2 1 3 6 8 9 10 10 7 5 4 4 4 3 3 2 2 1 1 1 1 1
4 2 1 0 0 0 1 3 6 7 8 8 7 6 5 6 6 6 4 4 4 3 2 4 7 9 9 10 9 6 4 4 3 2 1 1 1 1 1 0 0 1 2
4 3 1 0 0 0 1 3 5 6 7 8 8 7 7 8 8 7 6 6 6 5 4 5 6 7 8 9 8 5 2 2 1 0 0 0 0 0 0 0 0 1 1
2 1 1 1 1 1 1 3 4 5 6 6 7 7 7 8 8 9 9 10 9 7 6 6 6 6 7 8 8 6 4 2 0 0 0 0 0 0 0 0 0 0 0
0 1 1 3 3 3 3 3 4 4 4 5 7 8 7 7 7 8 10 12 11 10 8 8 8 7 7 8 8 8 7 5 1 0 0 0 0 0 0 0 0 0 0
2 3 4 5 6 5 5 6 5 4 4 5 7 8 7 6 7 8 11 13 14 13 11 10 11 11 10 9 9 10 9 6 3 1 0 0 0 0 0 0 0 0 0
4 5 7 8 7 7 7 7 6 5 5 6 5 6 6 6 8 10 12 15 16 17 14 11 14 15 14 12 12 11 10 9 6 3 1 1 0 0 0 0 0 0 0
7 8 10 10 9 8 7 7 5 5 6 6 4 3 4 7 10 12 13 15 18 18 15 14 15 15 14 14 14 13 12 12 9 5 3 2 1 0 0 0 0 0 0
10 10 12 12 11 10 9 7 5 6 6 6 5 4 5 9 12 13 14 15 17 17 17 17 16 14 13 12 13 13 13 12 10 6 4 3 2 1 0 0 0 0 0
12 13 13 13 12 11 9 7 7 8 8 8 8 7 8 11 13 13 14 14 15 16 17 18 16 13 11 11 11 11 11 10 9 6 5 4 3 2 1 0 0 0 0
14 14 14 12 10 8 7 6 7 9 10 11 11 11 11 11 11 10 9 10 11 13 15 16 15 11 9 9 10 10 10 9 8 7 5 4 3 3 2 2 1 0 0
16 17 15 12 9 6 4 2 3 7 10 13 14 14 12 9 8 6 4 4 5 8 10 11 11 9 8 8 8 9 10 9 8 7 7 6 5 4 4 3 2 1 0
20 20 18 15 11 8 5 2 1 4 8 11 13 13 10 8 6 6 5 3 2 3 4 5 5 6 6 6 7 8 8 8 8 8 8 8 6 5 5 4 3 1 0
21 21 20 17 13 9 6 3 2 3 6 8 10 9 8 7 6 7 6 5 4 2 1 1 2 2 3 4 5 5 5 6 6 7 8 9 8 7 6 5 4 2 1
20 20 20 17 12 9 6 3 2 4 6 6 7 6 6 6 5 4 5 5 4 3 1 0 0 0 1 1 2 3 5 5 5 6 8 10 10 8 6 5 4 3 2
19 19 18 15 11 8 6 3 2 5 6 6 6 6 5 5 3 1 3 5 4 2 1 0 0 0 0 0 0 2 5 6 5 6 9 11 11 8 5 5 5 4 3
Wind_Speed
0 0 0 0 1 1 1 2 1 1 2 3 3 3 4 4 4 4 3 7 7 7 8 8 9 9 9 9 10 10 10 10 10 10 10 10 11 10 10 10 10 9 9
0 1 1 0 1 1 1 1 2 2 2 2 3 3 3 3 3 4 3 5 7 7 7 8 8 8 9 9 10 9 9 10 9 10 10 11 11 11 11 11 11 10 9
1 1 1 1 1 1 1 2 2 2 3 3 3 3 3 2 2 2 3 3 4 7 7 7 8 8 8 9 9 10 9 9 9 9 9 9 10 10 10 10 10 10 9
1 1 1 1 1 1 1 1 2 2 2 3 2 2 2 2 3 3 4 3 3 3 6 7 8 8 8 8 9 9 9 9 9 9 9 9 10 9 9 9 10 10 9
1 2 1 1 1 1 1 2 0 2 2 2 2 2 2 3 3 4 4 4 3 3 3 6 8 7 7 7 8 8 8 9 9 9 9 9 9 9 9 9 9 9 8
1 2 1 0 2 1 1 1 2 2 2 2 3 2 3 3 3 3 4 3 3 4 3 4 5 7 8 7 6 7 7 7 8 9 9 9 9 8 8 8 9 9 8
1 1 2 0 2 1 1 2 2 2 2 1 2 2 2 4 3 3 3 2 3 3 3 3 3 3 5 8 7 7 7 7 7 8 8 9 9 9 9 9 8 8 8
1 1 1 2 1 1 1 2 2 2 1 1 2 2 2 2 3 2 3 3 2 3 3 4 3 3 3 3 6 8 7 7 7 7 7 8 8 8 8 9 9 9 9
1 1 1 2 2 2 1 2 2 2 2 1 1 2 2 1 1 2 3 2 2 2 2 3 4 3 3 3 4 7 7 7 7 7 7 7 8 8 9 9 9 9 9
1 1 1 1 2 2 1 2 1 2 2 2 1 2 3 3 2 1 2 2 2 2 2 2 2 3 3 2 2 4 5 6 6 7 7 7 7 7 9 9 10 9 9
1 1 1 1 1 2 2 2 2 3 2 2 2 1 2 2 4 3 2 1 2 2 2 2 2 2 2 2 3 4 5 5 5 6 6 7 7 7 8 10 10 10 10
1 1 1 1 2 1 1 2 2 2 2 3 3 2 2 2 3 3 3 2 2 1 2 2 2 2 2 2 2 3 5 5 5 5 6 6 7 7 7 9 10 10 10
1 2 2 2 2 2 2 2 1 2 2 2 3 3 3 3 3 3 3 3 3 2 1 2 1 1 2 1 1 3 4 4 5 5 5 5 6 6 7 8 9 10 10
2 2 1 1 2 2 2 2 2 2 2 3 3 3 3 3 3 3 3 3 3 2 2 2 1 2 2 2 1 4 3 5 5 5 5 5 6 6 6 6 7 8 8
1 1 1 1 1 1 2 3 2 3 2 3 2 2 3 2 3 3 3 3 4 4 3 2 2 1 2 2 2 3 3 4 5 6 6 6 6 6 5 6 6 7 7
1 1 1 1 1 1 1 2 2 2 2 2 2 3 3 2 2 3 3 3 3 4 4 2 1 1 1 2 2 3 4 5 6 6 6 6 6 6 6 6 6 7 7
0 0 1 1 2 2 1 2 3 2 3 3 3 2 3 4 3 3 2 3 3 3 4 3 1 0 1 2 1 3 3 4 4 7 6 6 6 6 6 6 6 6 7
0 0 1 1 2 2 2 2 3 3 3 3 3 3 3 3 3 3 3 3 3 3 4 4 2 1 2 2 2 3 3 2 2 4 6 6 6 6 5 5 5 5 6
1 1 1 2 2 2 3 3 3 4 3 3 3 3 3 3 3 3 3 3 2 2 3 3 2 2 2 1 2 2 2 2 3 2 5 6 6 6 6 6 5 5 6
1 1 2 2 3 3 3 4 4 4 4 4 3 3 3 3 3 3 3 3 3 3 3 3 2 2 2 1 2 2 2 2 2 2 1 2 5 8 8 7 6 5 5
1 1 2 2 3 2 3 4 5 4 4 4 3 3 3 2 4 4 4 3 3 3 3 2 2 2 1 2 2 2 2 2 2 2 2 2 3 4 5 7 6 6 5
1 2 2 2 3 3 5 6 6 5 4 4 3 3 3 1 1 1 3 4 5 4 4 3 2 2 3 3 2 3 2 3 2 1 2 3 2 2 2 2 5 6 6
1 2 2 2 3 3 5 5 6 5 4 3 3 4 3 2 2 2 2 2 3 4 5 5 4 4 4 3 3 4 3 3 3 2 2 3 2 3 3 2 7 6 6
1 2 2 2 3 3 5 5 6 5 4 3 3 3 3 3 3 4 4 4 3 3 3 4 4 5 4 3 4 4 4 4 4 3 3 4 3 3 3 2 7 7 7
2 2 2 2 3 3 4 5 6 4 3 3 3 3 3 3 3 4 4 4 4 4 2 2 3 3 3 3 4 4 4 4 4 3 3 3 3 3 3 3 4 8 7
3 3 2 2 3 3 3 3 5 3 3 3 3 2 1 3 3 3 5 5 5 5 5 3 3 4 4 4 4 5 4 4 4 3 2 3 3 3 3 2 2 3 4
Wind_Direction
290 147 200 253 258 231 204 209 221 221 228 223 236 242 245 243 237 229 183 177 198 212 214 214 211 211 212 213 209 206 205 204 202 203 203 203 203 201 201 199 197 200 200
346 294 247 269 254 249 295 264 241 232 241 236 241 247 253 248 237 237 226 190 191 203 209 209 208 207 209 209 207 205 203 202 201 199 201 205 206 207 206 201 199 201 202
340 289 293 265 334 318 270 246 248 240 230 230 225 226 231 236 235 234 234 224 191 184 193 202 206 210 213 211 207 204 201 203 200 202 203 205 206 206 204 201 200 201 202
277 273 281 312 331 286 270 250 252 250 242 241 228 228 225 218 221 223 223 219 222 202 187 192 200 206 213 213 211 204 200 201 200 202 203 203 203 202 202 203 203 203 205
267 260 269 357 269 269 287 283 238 266 252 245 234 219 227 221 223 216 218 219 213 220 204 179 188 196 206 211 211 205 201 199 198 201 202 201 201 199 200 201 201 202 205
266 283 240 188 281 273 279 290 265 249 255 255 259 231 234 231 227 217 222 211 209 214 217 204 197 186 189 194 196 191 187 189 192 192 196 199 201 199 198 199 203 206 207
282 273 297 247 270 271 276 265 254 228 231 237 256 247 226 223 213 211 218 220 206 208 213 213 214 205 183 180 184 185 185 185 187 193 196 199 202 200 198 199 204 208 208
294 247 294 279 283 272 257 263 247 263 232 205 253 258 231 208 205 200 199 202 210 204 207 205 205 204 214 188 162 179 187 190 191 191 198 202 205 204 203 203 204 207 209
301 330 320 307 298 286 287 275 259 250 262 232 270 295 288 284 272 195 208 203 211 222 223 206 204 195 205 199 188 175 181 189 194 200 203 203 207 209 209 208 207 207 208
319 298 293 297 292 296 296 273 287 275 267 257 239 265 306 322 278 243 209 188 197 214 228 237 219 203 208 203 172 159 170 190 200 207 208 207 205 209 213 213 213 213 211
313 322 305 298 287 291 307 314 319 290 276 278 272 281 279 271 269 268 263 244 227 220 212 221 226 224 215 213 199 168 172 193 205 213 215 212 211 215 216 215 216 217 217
330 16 341 326 302 306 292 289 296 279 296 304 294 289 283 286 287 277 269 259 257 246 221 211 224 221 217 215 209 139 174 200 207 210 213 217 221 222 222 220 219 218 218
6 23 359 344 335 331 311 304 299 317 300 289 281 285 289 289 292 286 279 275 272 259 218 215 215 231 234 227 194 153 187 201 207 211 216 221 226 225 224 225 221 220 219
14 24 6 359 349 335 322 318 306 317 314 289 292 299 288 294 287 279 282 287 272 258 239 247 218 229 234 233 174 205 201 191 208 213 219 225 226 225 223 223 219 219 221
9 36 22 28 9 352 335 319 334 331 331 308 298 274 274 286 288 282 278 277 276 273 267 239 225 224 241 229 203 237 235 189 202 214 220 226 225 222 219 220 219 219 221
6 349 332 352 338 316 295 295 301 331 320 318 305 307 292 288 285 283 275 273 276 275 276 273 268 261 278 258 204 243 239 190 198 208 216 220 218 220 221 222 221 218 217
326 322 322 308 303 303 293 286 302 308 302 309 308 296 294 305 300 289 281 283 278 271 267 274 276 241 236 259 260 261 247 235 206 190 204 213 214 218 218 220 223 220 217
331 11 294 295 297 304 303 294 294 305 301 302 307 309 300 296 297 296 297 288 285 279 265 268 274 263 248 246 244 253 257 260 260 169 186 198 203 210 212 215 217 218 216
330 328 305 315 317 316 306 296 293 295 295 294 298 302 305 302 295 304 296 297 288 276 267 261 266 280 261 260 259 251 255 272 272 179 187 195 199 203 208 210 211 217 217
341 334 333 325 319 315 308 298 291 288 288 291 295 297 298 303 302 300 289 290 289 283 266 254 256 261 257 259 262 257 262 262 280 287 275 235 204 203 203 198 201 208 210
350 356 337 330 317 303 320 316 297 286 289 292 299 301 308 337 347 325 317 320 300 280 273 265 262 271 281 274 269 270 279 281 274 292 290 264 230 220 204 196 197 198 199
344 347 343 325 317 346 11 348 317 297 296 297 302 303 297 268 346 346 339 331 317 291 288 281 267 271 277 276 273 266 264 268 273 277 284 283 275 259 245 220 165 182 195
319 331 328 325 331 11 11 348 326 298 294 304 307 305 305 347 331 318 325 275 279 292 288 282 282 277 273 265 263 261 257 272 284 282 282 281 277 270 254 177 144 167 186
317 316 318 327 332 4 13 345 327 293 300 308 308 301 305 322 341 335 312 308 298 281 262 259 276 279 280 283 262 258 260 253 260 244 241 263 265 268 268 225 154 169 181
301 296 311 326 327 343 12 346 325 306 317 311 310 315 311 313 14 344 305 305 306 296 253 237 263 278 303 286 270 262 252 249 252 238 221 246 261 270 264 245 172 171 181
288 294 311 314 312 324 10 348 329 308 320 308 304 299 37 348 359 328 297 295 295 301 305 286 256 243 246 242 232 246 252 252 260 260 216 239 255 266 260 241 229 186 192